Wake Island Airfield, Wake Island

2:35 AM WAKT on September 04, 2015 (GMT +1200)
Wake Island Army Air Field | | Change Station
CLOSE
Current Station
Airport
Location: Wake Island, Wake Island Army,
Elevation: 13 ft
Nearby Weather Stations

Elev 13 ft 19.28 °N, 166.64 °E | Updated 37 minutes ago

Clear
Clear
84 °F
Feels Like 94 °F
N
12
Wind Variable Wind from North

Today
High -- | Low -- °F
--% Chance of Precip.
Yesterday
High -- | Low -- °F
Precip. -- in
6:38 AM 7:06 PM
Waning Gibbous, 70% visible
Pressure 29.87 in
Visibility 6.2 miles
Clouds Clear
Heat Index 94 °F
Dew Point 76 °F
Humidity 77%
Rainfall 0.00 in
Snow Depth Not available.
UV 0 out of 12
Pollen Not available.
Air Quality Not available.
Flu Activity Not available.
METAR PWAK 031358Z AUTO 01010KT 9999 CLR 29/25 A2985 RMK AO2 SLP115 T02910246 $
Pressure 29.87 in
Visibility 6.2 miles
Clouds Clear
Heat Index 94 °F
Dew Point 76 °F
Humidity 77%
Rainfall 0.00 in
Snow Depth Not available.
UV 0 out of 12
Pollen Not available.
Air Quality Not available.
Flu Activity Not available.
METAR PWAK 031358Z AUTO 01010KT 9999 CLR 29/25 A2985 RMK AO2 SLP115 T02910246 $

10-Day Weather Forecast

×

Almanac

Astronomy

Sep. 04, 2015 Rise Set
Actual Time
Civil Twilight
Nautical Twilight
Astronomical Twilight
Moon
Length of Visible Light
Length of Day
Tomorrow will be .
, % of the Moon is Illuminated

Today's Extremes

Country Highs Country Lows

Community

WunderPhotos

Upload Photos

1,851,960 photos uploaded!

WunderBlogs® & News

Nearby

Air Quality

  Air Quality AQ Index Pollutant
Not available.

Snow Depth

Station Depth Elevation

Earthquake Activity

City Distance Mag. Time & Date
Minimum magnitude displayed is 2.5.

Coastal Water Temperatures

Place Temperature

Stations

Nearby Weather Stations

Station Location Temp. Windchill Dew Point Humidity Wind Precip. Elev Updated Type